Regional Weather Roundup
Issued by NWS

Home | Current Version | Previous Version | Graphics & Text | Print | Product List | Glossary On
Versions: 1 2 3 4 5 6 7 8 9 10 11 12 13 14 15 16 17 18 19 20 21 22 23 24 25 26 27
000
ASUS45 KCYS 260910
RWRWY

WYOMING REGIONAL WEATHER ROUNDUP
NATIONAL WEATHER SERVICE CHEYENNE WY
300 AM MDT THU MAY 26 2016

NOTE:  "FAIR" INDICATES FEW OR NO CLOUDS BELOW 12,000 FEET
WITH NO SIGNIFICANT WEATHER AND/OR OBSTRUCTIONS TO VISIBILITY.

WYZ001-261000-
YELLOWSTONE NATIONAL PARK

CITY           SKY/WX    TMP DP  RH WIND       PRES   REMARKS
LK YELLOWSTONE   N/A     31  29  92 CALM      30.12S
W YELLOWSTONE  NOT AVBL

$$
WYZ002>013-054>058-071-098>099-261000-
NORTHERN WYOMING

CITY           SKY/WX    TMP DP  RH WIND       PRES   REMARKS
JACKSON        CLOUDY    34  34 100 NE3       30.10S
CODY           MOCLDY    46  36  66 W3        29.98S
GREYBULL       CLOUDY    47  46  97 S3        29.94F
WORLAND        FAIR      45  42  89 CALM      29.96R
SHERIDAN       RAIN      48  43  82 W14G29    29.95R
BUFFALO        FAIR      44  39  82 N7        29.95F
GILLETTE       FAIR      45  40  82 W7        29.93R
HULETT         FAIR      45  43  93 W3        29.93R
NEWCASTLE      FAIR      43  37  81 NW3       29.93S

$$
WYZ014>020-022>026-101>103-261000-
CENTRAL WYOMING

CITY           SKY/WX    TMP DP  RH WIND       PRES   REMARKS
BIG PINEY      FAIR      32  30  92 N7        30.10F WCI  26
PINEDALE       FAIR      32  32 100 MISG      30.11S
DUBOIS         FAIR      37  30  75 NW8       30.07F WCI  31
LANDER         FAIR      42  33  70 W5        29.99S
RIVERTON       FAIR      48  33  56 W13       29.99F
CASPER         FAIR      37  35  92 SW10      29.98F WCI  30
DOUGLAS          N/A    N/A N/A N/A MISG      29.97F

$$
WYZ021-027>030-104>119-261000-
SOUTHERN WYOMING

CITY           SKY/WX    TMP DP  RH WIND       PRES   REMARKS
EVANSTON       FAIR      38  34  85 CALM      30.09F
KEMMERER         N/A     34  32  93 NW8       30.10F WCI  27
FORT BRIDGER   SUNNY     37  37 100 W7        30.11F WCI  32
ROCK SPRINGS   FAIR      39  34  82 N3        30.05F
DIXON          FAIR      38  31  77 E3        30.10S
RAWLINS        FAIR      39  31  72 SW6       30.07S WCI  35
SARATOGA       FAIR      32  32 100 CALM      30.08F
LARAMIE        FAIR      35  29  78 S8        30.06F WCI  29
CHEYENNE       FAIR      40  33  76 W9        30.02F WCI  34
TORRINGTON     FAIR      44  40  85 SW3       29.94S
PINE BLUFFS    FAIR      37  36  93 W7        30.01S WCI  32

$$




USA.gov is the U.S. government's official web portal to all federal, state and local government web resources and services.